TimeCST,TemperatureF,Dew PointF,Humidity,Sea Level PressureIn,VisibilityMPH,Wind Direction,Wind SpeedMPH,Gust SpeedMPH,PrecipitationIn,Events,Conditions,WindDirDegrees,DateUTC
12:15 AM,15.8,14.0,93,30.32,10.0,Calm,Calm,-,N/A,,Clear,0,2013-01-10 06:15:00
12:35 AM,14.0,12.2,93,30.32,10.0,Calm,Calm,-,N/A,,Clear,0,2013-01-10 06:35:00
12:55 AM,14.0,12.2,93,30.31,10.0,Calm,Calm,-,N/A,,Clear,0,2013-01-10 06:55:00
2:35 AM,12.2,10.4,92,30.33,10.0,Calm,Calm,-,N/A,,Clear,0,2013-01-10 08:35:00
2:55 AM,19.4,17.6,93,30.35,10.0,SW,5.8,-,N/A,,Clear,220,2013-01-10 08:55:00
3:15 AM,19.4,17.6,93,30.36,10.0,SSW,4.6,-,N/A,,Clear,200,2013-01-10 09:15:00
3:35 AM,19.4,17.6,93,30.36,10.0,South,4.6,-,N/A,,Clear,190,2013-01-10 09:35:00
3:55 AM,19.4,17.6,93,30.36,10.0,SSW,3.5,-,N/A,,Clear,210,2013-01-10 09:55:00
4:15 AM,19.4,17.6,93,30.38,10.0,SSW,4.6,-,N/A,,Clear,210,2013-01-10 10:15:00
4:35 AM,19.4,17.6,93,30.37,10.0,SSW,4.6,-,N/A,,Clear,200,2013-01-10 10:35:00
4:55 AM,19.4,17.6,93,30.37,10.0,SSW,3.5,-,N/A,,Clear,200,2013-01-10 10:55:00
5:35 AM,19.4,17.6,93,30.35,10.0,South,3.5,-,N/A,,Clear,170,2013-01-10 11:35:00
5:55 AM,21.2,17.6,86,30.35,10.0,South,4.6,-,N/A,,Clear,180,2013-01-10 11:55:00
6:15 AM,21.2,17.6,86,30.35,10.0,Calm,Calm,-,N/A,,Clear,0,2013-01-10 12:15:00
6:35 AM,21.2,17.6,86,30.35,10.0,South,3.5,-,N/A,,Clear,190,2013-01-10 12:35:00
6:55 AM,21.2,19.4,93,30.34,10.0,South,3.5,-,N/A,,Clear,190,2013-01-10 12:55:00
7:15 AM,21.2,17.6,86,30.34,10.0,Calm,Calm,-,N/A,,Clear,0,2013-01-10 13:15:00
7:35 AM,21.2,17.6,86,30.34,10.0,Calm,Calm,-,N/A,,Clear,0,2013-01-10 13:35:00
8:15 AM,23.0,17.6,80,30.33,10.0,South,3.5,-,N/A,,Clear,190,2013-01-10 14:15:00
8:35 AM,23.0,17.6,80,30.33,10.0,South,4.6,-,N/A,,Clear,190,2013-01-10 14:35:00
9:15 AM,28.4,19.4,69,30.32,10.0,Calm,Calm,-,N/A,,Clear,0,2013-01-10 15:15:00
9:35 AM,30.2,17.6,60,30.32,10.0,SSW,5.8,-,N/A,,Clear,210,2013-01-10 15:35:00
9:55 AM,32.0,15.8,51,30.31,10.0,SSW,10.4,-,N/A,,Clear,200,2013-01-10 15:55:00
10:15 AM,32.0,15.8,51,30.31,10.0,SSW,8.1,-,N/A,,Clear,200,2013-01-10 16:15:00
10:55 AM,35.6,14.0,41,30.30,10.0,South,6.9,-,N/A,,Clear,190,2013-01-10 16:55:00
11:15 AM,35.6,12.2,38,30.28,10.0,South,8.1,-,N/A,,Clear,180,2013-01-10 17:15:00
11:35 AM,37.4,12.2,36,30.27,10.0,South,8.1,-,N/A,,Clear,180,2013-01-10 17:35:00
11:55 AM,37.4,10.4,33,30.26,10.0,SSW,8.1,-,N/A,,Clear,200,2013-01-10 17:55:00
12:15 PM,39.2,10.4,31,30.24,10.0,SSW,5.8,-,N/A,,Clear,200,2013-01-10 18:15:00
12:35 PM,41.0,10.4,29,30.22,10.0,South,8.1,-,N/A,,Clear,180,2013-01-10 18:35:00
12:55 PM,41.0,8.6,26,30.21,10.0,SSW,8.1,-,N/A,,Clear,200,2013-01-10 18:55:00
1:15 PM,41.0,10.4,29,30.20,10.0,South,8.1,-,N/A,,Clear,180,2013-01-10 19:15:00
1:35 PM,41.0,10.4,29,30.20,10.0,SSE,6.9,-,N/A,,Clear,160,2013-01-10 19:35:00
1:55 PM,41.0,10.4,29,30.19,10.0,South,6.9,-,N/A,,Clear,170,2013-01-10 19:55:00
2:15 PM,41.0,10.4,29,30.18,10.0,South,6.9,-,N/A,,Clear,170,2013-01-10 20:15:00
3:15 PM,41.0,8.6,26,30.16,10.0,South,8.1,-,N/A,,Clear,170,2013-01-10 21:15:00
3:35 PM,41.0,5.0,23,30.16,10.0,South,6.9,-,N/A,,Clear,180,2013-01-10 21:35:00
3:55 PM,39.2,8.6,28,30.17,10.0,SSE,4.6,-,N/A,,Clear,160,2013-01-10 21:55:00
4:15 PM,39.2,8.6,28,30.15,10.0,SSE,9.2,-,N/A,,Clear,160,2013-01-10 22:15:00
4:35 PM,37.4,8.6,30,30.14,10.0,SSE,6.9,-,N/A,,Clear,160,2013-01-10 22:35:00
4:55 PM,37.4,10.4,33,30.13,10.0,SSE,4.6,-,N/A,,Clear,160,2013-01-10 22:55:00
5:15 PM,35.6,10.4,35,30.13,10.0,SSE,6.9,-,N/A,,Clear,150,2013-01-10 23:15:00
5:35 PM,35.6,12.2,38,30.11,10.0,SSE,6.9,-,N/A,,Clear,160,2013-01-10 23:35:00
5:55 PM,35.6,12.2,38,30.10,10.0,SSE,6.9,-,N/A,,Clear,150,2013-01-10 23:55:00
6:15 PM,35.6,14.0,41,30.10,10.0,SSE,8.1,-,N/A,,Clear,150,2013-01-11 00:15:00
6:35 PM,35.6,15.8,44,30.09,10.0,SSE,9.2,18.4,N/A,,Clear,160,2013-01-11 00:35:00
6:55 PM,35.6,17.6,48,30.07,10.0,SSE,10.4,-,N/A,,Clear,160,2013-01-11 00:55:00
7:15 PM,33.8,19.4,56,30.05,10.0,SSE,9.2,-,N/A,,Clear,150,2013-01-11 01:15:00
7:35 PM,33.8,21.2,60,30.04,10.0,SSE,12.7,18.4,N/A,,Clear,150,2013-01-11 01:35:00
7:55 PM,33.8,21.2,60,30.03,10.0,SSE,10.4,16.1,N/A,,Scattered Clouds,150,2013-01-11 01:55:00
8:15 PM,33.8,23.0,65,30.01,10.0,SSE,9.2,16.1,N/A,,Overcast,150,2013-01-11 02:15:00
8:35 PM,33.8,23.0,65,29.99,10.0,SSE,12.7,17.3,N/A,,Overcast,150,2013-01-11 02:35:00
8:55 PM,35.6,23.0,60,29.98,10.0,SSE,10.4,-,N/A,,Overcast,150,2013-01-11 02:55:00
9:15 PM,33.8,26.6,75,29.97,10.0,SSE,13.8,18.4,N/A,,Light Drizzle,150,2013-01-11 03:15:00
9:35 PM,33.8,28.4,81,29.94,7.0,SSE,8.1,17.3,N/A,,Overcast,150,2013-01-11 03:35:00
9:55 PM,32.0,30.2,93,29.92,7.0,SE,9.2,-,N/A,,Overcast,140,2013-01-11 03:55:00
10:15 PM,32.0,32.0,100,29.90,10.0,SE,6.9,-,N/A,,Overcast,140,2013-01-11 04:15:00
10:35 PM,32.0,32.0,100,29.87,7.0,SE,9.2,17.3,0.01,,Overcast,130,2013-01-11 04:35:00
10:55 PM,32.0,32.0,100,29.86,5.0,SSE,11.5,17.3,0.01,,Overcast,160,2013-01-11 04:55:00
11:15 PM,32.0,32.0,100,29.86,5.0,SSE,10.4,17.3,0.01,,Overcast,160,2013-01-11 05:15:00
11:35 PM,32.0,32.0,100,29.83,5.0,SE,9.2,-,0.01,,Overcast,140,2013-01-11 05:35:00
11:55 PM,33.8,32.0,93,29.81,10.0,SE,9.2,-,0.02,,Overcast,140,2013-01-11 05:55:00